Find Starlink 11500

NORAD ID: 62472 Int'l Des: 2024-254 Owner: SPXS Country: US Constellation: starlink operational
又名: STARLINK-11500 [DTC] celestrak
LEOCIRCULAR

当前视图

正在加载3D地球...

About Starlink 11500

Starlink 11500 (NORAD 62472) is a starlink constellation satellite (v2 mini d2c) launched Dec 31, 2024 by SPXS of US. It operates in LEO, CIRCULAR orbit with a mass of 960.00 kg.

即将过境

Passes for default location (London). Set your location on the main map for personalized predictions.

高度历史

Loading altitude history...

两行轨道根数

1 62472U 24254L 26265.60206163 .00118849 00000-0 91472-3 0 9990
2 62472 42.9980 115.7712 0000917 282.7882 77.2883 15.70887239 99848
Epoch: Sep 22, 2026 • Age: 12 hours

当前状态

高度 364.2 km
远地点 / 近地点 N/A
速度 7.69 km/s
星下点 -31.81°S, 32.73°E
发射日期 Dec 31, 2024
运行时间 1.7 years
类型 internet

技术详情

分类 Payload
质量 960.00 kg
干质量 910.00 kg
长度 0.30 m
跨度 29.00 m
形状 ? Box + pan
制造商 SPXS
平台类型 Starlink V2MD
阶段状态 In Orbit
所有者/国家 SPXS/US

Most Searched